Location: Schommer Observatory
(40.5200°N, 74.4500°W)
Time: 05:44:17
(UTC-04:00)

Tiangong 2 - Visible Passes

Search period start: 28 May 2018 00:00
Search period end: 07 June 2018 00:00
Orbit: 382 x 385 km, 42.8° (Epoch: 28 May)

Date Brightness Start Highest point End Pass type
(mag) Time Alt. Az. Time Alt. Az. Time Alt. Az.
28 May 1.8 20:58:31 10° WNW 21:01:38 53° N 21:04:44 10° E visible
28 May 1.4 22:35:19 10° WNW 22:38:01 61° W 22:38:01 61° W visible
29 May 1.2 21:35:29 10° WNW 21:38:38 71° NNE 21:40:45 19° E visible
29 May 3.8 23:12:22 10° W 23:12:56 14° W 23:12:56 14° W visible
30 May 1.2 22:12:24 10° W 22:15:29 53° SSW 22:15:40 52° S visible
31 May 1.0 21:12:31 10° WNW 21:15:40 84° SSW 21:18:23 13° ESE visible
31 May 3.6 22:49:47 10° W 22:50:34 14° WSW 22:50:34 14° WSW visible
01 Jun 2.1 21:49:33 10° W 21:52:24 32° SSW 21:53:19 26° S visible
02 Jun 3.8 22:28:04 10° SW 22:28:16 10° SW 22:28:16 10° SW visible
03 Jun 3.0 21:26:53 10° W 21:29:14 19° SSW 21:31:04 12° S visible
05 Jun 3.7 21:05:03 10° SW 21:05:57 11° SW 21:06:52 10° SSW visible
